Hourly Weather Rudowo

Today, 23 April, Friday

Time Temperature Precipitation Wind Pressure Humidity
00:00 0°C° 0 mm 5 mps 750 mmHg 74%
01:00 0°C° 0 mm 5 mps 750 mmHg 76%
02:00 -1°C° 0 mm 5 mps 750 mmHg 78%
03:00 -1°C° 0 mm 4 mps 750 mmHg 79%
04:00 -2°C° 0 mm 4 mps 751 mmHg 80%
05:00 0°C° 0 mm 4 mps 751 mmHg 76%
06:00 +1°C° 0 mm 5 mps 751 mmHg 71%
07:00 +2°C° 0 mm 6 mps 751 mmHg 67%
08:00 +3°C° 0.1 mm 6 mps 752 mmHg 62%
09:00 +4°C° 0.1 mm 7 mps 752 mmHg 57%
10:00 +6°C° 0.1 mm 7 mps 752 mmHg 53%
11:00 +6°C° 0.1 mm 7 mps 752 mmHg 47%
12:00 +8°C° 0.1 mm 7 mps 752 mmHg 41%
13:00 +8°C° 0.1 mm 7 mps 752 mmHg 35%
14:00 +8°C° 0 mm 7 mps 752 mmHg 37%
15:00 +8°C° 0 mm 6 mps 752 mmHg 40%
16:00 +8°C° 0 mm 6 mps 752 mmHg 42%
17:00 +6°C° 0 mm 4 mps 753 mmHg 46%
18:00 +5°C° 0 mm 3 mps 753 mmHg 50%
19:00 +4°C° 0 mm 2 mps 753 mmHg 55%
20:00 +4°C° 0 mm 2 mps 753 mmHg 58%
21:00 +3°C° 0 mm 2 mps 753 mmHg 61%
22:00 +2°C° 0 mm 2 mps 754 mmHg 65%
23:00 +2°C° 0 mm 2 mps 754 mmHg 67%

Tomorrow, 24 April, Saturday

Time Temperature Precipitation Wind Pressure Humidity
00:00 +1°C° 0 mm 2 mps 753 mmHg 70%
01:00 +1°C° 0 mm 2 mps 753 mmHg 72%
02:00 +1°C° 0 mm 2 mps 753 mmHg 72%
03:00 -1°C° 0 mm 2 mps 753 mmHg 72%
04:00 -1°C° 0 mm 3 mps 753 mmHg 71%
05:00 0°C° 0 mm 3 mps 753 mmHg 69%
06:00 +2°C° 0 mm 3 mps 754 mmHg 67%
07:00 +3°C° 0 mm 4 mps 754 mmHg 65%
08:00 +5°C° 0 mm 4 mps 754 mmHg 55%
09:00 +6°C° 0 mm 4 mps 754 mmHg 45%
10:00 +7°C° 0 mm 4 mps 754 mmHg 36%
11:00 +8°C° 0 mm 4 mps 754 mmHg 35%
12:00 +8°C° 0 mm 4 mps 753 mmHg 34%
13:00 +10°C° 0 mm 4 mps 753 mmHg 33%
14:00 +10°C° 0 mm 4 mps 753 mmHg 36%
15:00 +9°C° 0 mm 5 mps 752 mmHg 40%
16:00 +9°C° 0 mm 5 mps 752 mmHg 43%
17:00 +7°C° 0.1 mm 5 mps 752 mmHg 57%
18:00 +3°C° 0.1 mm 5 mps 753 mmHg 71%
19:00 +1°C° 0.1 mm 5 mps 753 mmHg 85%
20:00 0°C° 0 mm 4 mps 753 mmHg 86%
21:00 +1°C° 0 mm 3 mps 754 mmHg 88%
22:00 +1°C° 0 mm 2 mps 754 mmHg 89%
23:00 -1°C° 0 mm 2 mps 754 mmHg 86%

Day after tomorrow, 25 April, Sunday

Time Temperature Precipitation Wind Pressure Humidity
00:00 -1°C° 0 mm 2 mps 754 mmHg 83%
01:00 -2°C° 0 mm 2 mps 754 mmHg 81%
02:00 -2°C° 0 mm 2 mps 754 mmHg 82%
03:00 -2°C° 0 mm 2 mps 754 mmHg 83%
04:00 -3°C° 0 mm 2 mps 754 mmHg 84%
05:00 -1°C° 0 mm 3 mps 754 mmHg 76%
06:00 +1°C° 0 mm 3 mps 754 mmHg 67%
07:00 +1°C° 0 mm 4 mps 754 mmHg 59%
08:00 +4°C° 0 mm 4 mps 754 mmHg 51%
09:00 +5°C° 0 mm 5 mps 754 mmHg 44%
10:00 +6°C° 0 mm 5 mps 753 mmHg 36%
11:00 +6°C° 0 mm 5 mps 753 mmHg 37%
12:00 +6°C° 0 mm 5 mps 753 mmHg 39%
13:00 +6°C° 0 mm 5 mps 753 mmHg 40%
14:00 +5°C° 0 mm 6 mps 753 mmHg 42%
15:00 +5°C° 0 mm 6 mps 753 mmHg 44%
16:00 +5°C° 0 mm 6 mps 753 mmHg 46%
17:00 +3°C° 0 mm 5 mps 753 mmHg 52%
18:00 +3°C° 0 mm 4 mps 753 mmHg 58%
19:00 +1°C° 0 mm 3 mps 753 mmHg 64%
20:00 +1°C° 0 mm 2 mps 753 mmHg 68%
21:00 -1°C° 0 mm 2 mps 753 mmHg 71%
22:00 0°C° 0 mm 1 mps 753 mmHg 75%
23:00 0°C° 0 mm 1 mps 753 mmHg 75%

26 April, Monday

Time Temperature Precipitation Wind Pressure Humidity
00:00 -2°C° 0 mm 2 mps 753 mmHg 75%
01:00 -2°C° 0 mm 2 mps 753 mmHg 75%
02:00 -3°C° 0 mm 2 mps 753 mmHg 75%
03:00 -3°C° 0 mm 2 mps 752 mmHg 74%
04:00 -4°C° 0 mm 3 mps 752 mmHg 74%
05:00 -1°C° 0 mm 3 mps 752 mmHg 68%
06:00 -1°C° 0 mm 4 mps 752 mmHg 62%
07:00 +1°C° 0 mm 4 mps 752 mmHg 57%
08:00 +4°C° 0 mm 4 mps 752 mmHg 51%
09:00 +5°C° 0 mm 4 mps 751 mmHg 46%
10:00 +6°C° 0 mm 5 mps 751 mmHg 41%
11:00 +7°C° 0 mm 4 mps 751 mmHg 40%
12:00 +7°C° 0 mm 4 mps 750 mmHg 38%
13:00 +8°C° 0 mm 4 mps 750 mmHg 36%
14:00 +7°C° 0.1 mm 4 mps 750 mmHg 41%
15:00 +7°C° 0.1 mm 4 mps 750 mmHg 46%
16:00 +6°C° 0.1 mm 4 mps 749 mmHg 51%
17:00 +5°C° 0.1 mm 3 mps 749 mmHg 58%
18:00 +3°C° 0.1 mm 3 mps 749 mmHg 65%
19:00 +3°C° 0.1 mm 2 mps 749 mmHg 72%
20:00 +2°C° 0 mm 2 mps 749 mmHg 75%
21:00 +2°C° 0 mm 1 mps 749 mmHg 78%
22:00 +1°C° 0 mm 1 mps 750 mmHg 81%
23:00 +1°C° 0 mm 1 mps 749 mmHg 81%

27 April, Tuesday

Time Temperature Precipitation Wind Pressure Humidity
00:00 +1°C° 0 mm 1 mps 749 mmHg 81%
01:00 0°C° 0 mm 1 mps 749 mmHg 80%
02:00 0°C° 0 mm 1 mps 749 mmHg 79%
03:00 0°C° 0 mm 1 mps 749 mmHg 78%
04:00 0°C° 0 mm 1 mps 749 mmHg 77%
05:00 +2°C° 0 mm 1 mps 749 mmHg 71%
06:00 +2°C° 0 mm 2 mps 749 mmHg 64%
07:00 +4°C° 0 mm 2 mps 749 mmHg 58%
08:00 +6°C° 0 mm 2 mps 748 mmHg 52%
09:00 +7°C° 0 mm 2 mps 748 mmHg 47%
10:00 +9°C° 0 mm 3 mps 748 mmHg 41%
11:00 +9°C° 0 mm 3 mps 747 mmHg 41%
12:00 +10°C° 0 mm 3 mps 747 mmHg 40%
13:00 +10°C° 0 mm 3 mps 746 mmHg 40%
14:00 +10°C° 0 mm 3 mps 746 mmHg 41%
15:00 +10°C° 0 mm 3 mps 746 mmHg 43%
16:00 +10°C° 0 mm 3 mps 745 mmHg 45%
17:00 +9°C° 0 mm 3 mps 745 mmHg 52%
18:00 +7°C° 0 mm 3 mps 745 mmHg 58%
19:00 +5°C° 0 mm 3 mps 744 mmHg 65%
20:00 +5°C° 0 mm 3 mps 744 mmHg 65%
21:00 +4°C° 0 mm 4 mps 744 mmHg 65%
22:00 +4°C° 0 mm 4 mps 743 mmHg 64%
23:00 +4°C° 0 mm 4 mps 743 mmHg 64%

28 April, Wednesday

Time Temperature Precipitation Wind Pressure Humidity
00:00 +4°C° 0 mm 4 mps 742 mmHg 64%
01:00 +4°C° 0 mm 4 mps 742 mmHg 64%
02:00 +4°C° 0 mm 4 mps 742 mmHg 67%
03:00 +3°C° 0 mm 4 mps 741 mmHg 70%
04:00 +3°C° 0 mm 3 mps 741 mmHg 73%
05:00 +3°C° 0.3 mm 3 mps 741 mmHg 78%
06:00 +3°C° 0.3 mm 3 mps 741 mmHg 83%
07:00 +3°C° 0.3 mm 3 mps 741 mmHg 88%
08:00 +3°C° 0.4 mm 3 mps 741 mmHg 90%
09:00 +4°C° 0.4 mm 3 mps 741 mmHg 92%
10:00 +4°C° 0.4 mm 3 mps 740 mmHg 94%
11:00 +4°C° 0.1 mm 3 mps 740 mmHg 94%
12:00 +4°C° 0.1 mm 3 mps 740 mmHg 94%
13:00 +4°C° 0.1 mm 3 mps 740 mmHg 94%
14:00 +4°C° 0 mm 3 mps 740 mmHg 94%
15:00 +4°C° 0 mm 3 mps 740 mmHg 94%
16:00 +5°C° 0 mm 3 mps 740 mmHg 94%
17:00 +5°C° 0.1 mm 2 mps 740 mmHg 95%
18:00 +5°C° 0.1 mm 2 mps 740 mmHg 96%
19:00 +5°C° 0.1 mm 2 mps 740 mmHg 97%
20:00 +5°C° 0.1 mm 2 mps 740 mmHg 97%
21:00 +5°C° 0.1 mm 2 mps 740 mmHg 97%
22:00 +4°C° 0.1 mm 3 mps 739 mmHg 97%
23:00 +4°C° 0.3 mm 3 mps 739 mmHg 97%
Show more